COSMOS 2251 DEB, 36539

Orbit data source: Space-Track

COSMOS 2251 DEB, 36539 is space debris in LEO originally from a launch on Wed, 16 Jun 1993 UTC launched from the Plesetsk Missile And Space Complex (PKMTR). The debris from Iridium 33, an American commercial communications satellite, has been tracked extensively since its accidental collision with the defunct Russian satellite Cosmos 2251 in 2009. This event, occurring at high speed in low Earth orbit (LEO), generated thousands of pieces of space debris, significantly increasing the risk of further collisions. The Iridium 33 debris cloud has impacted space traffic management and orbital debris mitigation strategies, making it a subject of ongoing study in space situational awareness.

Loading next visibility...
Identifier
36539, 1993-036BCZ
Orbit
LEO
Country
Flag of CISCIS
Related business
Manufacturer
Unknown
Mission
Spacecraft
Bus & Motor
Unknown
Mass
Unknown
Launch date (UTC)
1993-06-16 (33 years ago)
Launch vehicle
Unknown
Launch site
Plesetsk Missile And Space Complex (PKMTR)
Object type
Payload
Rocket body
Debris
Shape & HBR
Unknown shape, 0.1 m
Radar Cross Section
Small (<0.1 m²)

Expand to show TLE details & history
Last TLE update: 11 hours ago

TLE from 11 hours ago
0 COSMOS 2251 DEB
1 36539U 93036BCZ 26124.14462484  .00002025  00000-0  42342-3 0  9992
2 36539  74.0203 143.3003 0029219 250.2004 109.6011 14.60239984860259
Epoch: 2026-05-04T03:28Z
TLE epoch observation values (Epoch: 2026-05-04T03:28:15.586Z)
Latitude
0.00001°
Longitude
-130.80267°
Altitude
702.024 km
Speed
7.501 km/s
True Right ascension
09h 33m 12s
True Declination
0° 00' 00"
Sunlit
Object was in daylight at epoch
Visualization orbit readout
Latitude
Unknown
Longitude
Unknown
Altitude
Unknown
Speed
Unknown
Apparent Right ascension
Unknown
Apparent Declination
Unknown
Sunlit
N/A
Visualization observer readout
Local Sidereal Time
22:40:41
Azimuth
Unknown
Elevation
Unknown
Doppler factor
Unknown
Orbital elements
Apogee altitude
710.65 km
Perigee altitude
669.345 km
Semi-major axis
7,068.135 km
Eccentricity
0.00292
Inclination
74.0203°
RAAN
143.3003°
Arg. of periapsis
250.2004°
True anomaly
109.91613°
Mean anomaly
109.6011°
Eccentric anomaly
109.75866°
Mean motion
3.65246 °/min
Orbital period
98.56 mins
BSTAR
0.00042342
Loading maneuver chart data...
Computing Atmospheric mass density...

Documentation

Showing up to 5 results
|